Location: Riedlingen
(48.1569°N, 9.4757°E)
Time: 22:17:32
(UTC+01:00)

Tiangong 1 - Visible Passes

Search period start: 21 November 2017 00:00
Search period end: 01 December 2017 00:00
Orbit: 284 x 308 km, 42.8° (Epoch: 21 November)

Date Brightness Start Highest point End Pass type
(mag) Time Alt. Az. Time Alt. Az. Time Alt. Az.
27 Nov 3.0 18:00:56 10° SSW 18:02:17 13° SSE 18:02:50 13° SSE visible
28 Nov 2.7 18:06:27 10° SSW 18:08:20 18° SSE 18:08:47 17° SSE visible
29 Nov 2.4 18:12:12 10° SW 18:14:19 22° S 18:14:37 21° SSE visible
30 Nov 2.3 18:18:00 10° WSW 18:20:11 24° S 18:20:21 24° S visible
